STARLINK-37492, 68849

Orbit data source: Space-Track

STARLINK-37492, 68849 is a payload satellite owned by SpaceX/Seattle (US) in SSO that was launched on Sun, 26 Apr 2026 UTC via an FALCON 9 launch vehicle from the Air Force Western Test Range (AFWTR). Payload-class satellites include a variety of spacecraft equipped with specific instruments for various scientific and technological missions. These include communications satellites like Starlink; space stations such as the ISS; scientific satellites like the Hubble; Earth observation satellites from companies like Planet Labs, Umbra, and HawkEye 360; GPS; miniature CubeSats for education and research; and military/defense satellites.

Loading next visibility...
Identifier
68849, 2026-094L
Orbit
SSO
Country
Flag of USUS
Related business
Manufacturer
SpaceX/Seattle
Mission
Operational spacecraft
Bus & Motor
STARLINK V2MO, Unknown motor
Mass
575 kg wet, ~530 kg dry
Launch date (UTC)
2026-04-26 (2 months ago)
Launch vehicle
FALCON 9
Launch site
Air Force Western Test Range (AFWTR)
Object type
Payload
Rocket body
Debris
Shape & HBR
Unknown shape, 14.5 m
Radar Cross Section
Large (>1 m²)

Expand to show TLE details & history
Last TLE update: 22 hours ago

TLE from 22 hours ago
0 STARLINK-37492
1 68849U 26094L   26170.94638032  .00026489  00000-0  81938-3 0  9998
2 68849  97.2835 185.3891 0001792  90.3588 269.7860 15.33466999  8470
Epoch: 2026-06-19T22:42Z
TLE epoch observation values (Epoch: 2026-06-19T22:42:47.259Z)
Latitude
-0.00004°
Longitude
-63.47587°
Altitude
468.595 km
Speed
7.632 km/s
True Right ascension
12h 21m 33s
True Declination
0° 00' 00"
Sunlit
Object was in daylight at epoch
Visualization orbit readout
Latitude
Unknown
Longitude
Unknown
Altitude
Unknown
Speed
Unknown
Apparent Right ascension
Unknown
Apparent Declination
Unknown
Sunlit
N/A
Visualization observer readout
Local Sidereal Time
07:14:02
Azimuth
Unknown
Elevation
Unknown
Doppler factor
Unknown
Orbital elements
Apogee altitude
463.646 km
Perigee altitude
461.195 km
Semi-major axis
6,840.557 km
Eccentricity
0.00018
Inclination
97.2835°
RAAN
185.3891°
Arg. of periapsis
90.3588°
True anomaly
269.76547°
Mean anomaly
269.786°
Eccentric anomaly
269.77573°
Mean motion
3.83624 °/min
Orbital period
93.84 mins
BSTAR
0.00081938
Loading maneuver chart data...
Computing Atmospheric mass density...
Loading historical data...
Loading historical data...
Loading historical data...
Loading historical data...
Loading historical data...
Loading historical data...
Loading historical data...

Documentation

Showing up to 5 results
|